| time (UTC) | temp F | wind direction | speed MPH | gust MPH | rain 1hr in | rain 24hr in | rain mn in | humidity % | barometer mb |
| 20260509031050 | 54 | 160 | 0.0 | 0.0 | 0.00 | 0.01 | 0.01 | 95 | 1008.5 |
| 20260509030548 | 54 | 160 | 0.0 | 0.0 | 0.00 | 0.01 | 0.01 | 95 | 1008.3 |
| 20260509030044 | 54 | 160 | 0.0 | 0.0 | 0.00 | 0.01 | 0.01 | 95 | 1008.3 |
| 20260509025541 | 54 | 160 | 0.0 | 0.0 | 0.00 | 0.01 | 0.01 | 94 | 1008.3 |
| 20260509025037 | 55 | 160 | 0.0 | 0.0 | 0.00 | 0.01 | 0.01 | 94 | 1008.3 |
| 20260509024533 | 55 | 160 | 0.0 | 0.0 | 0.00 | 0.01 | 0.01 | 94 | 1008.2 |
| 20260509024029 | 55 | 160 | 0.0 | 0.0 | 0.00 | 0.01 | 0.01 | 94 | 1008.2 |
| 20260509023527 | 55 | 160 | 0.0 | 0.0 | 0.00 | 0.01 | 0.01 | 94 | 1008.2 |
| 20260509023023 | 55 | 160 | 0.0 | 0.0 | 0.00 | 0.01 | 0.01 | 94 | 1008.1 |
| 20260509022520 | 55 | 161 | 0.0 | 0.0 | 0.00 | 0.01 | 0.01 | 93 | 1007.8 |
| 20260509022018 | 56 | 160 | 0.0 | 0.0 | 0.00 | 0.01 | 0.01 | 93 | 1008.1 |
| 20260509021514 | 56 | 160 | 0.0 | 0.0 | 0.00 | 0.01 | 0.01 | 93 | 1008.0 |
| 20260509021011 | 56 | 160 | 0.0 | 0.0 | 0.00 | 0.01 | 0.01 | 93 | 1008.0 |
| 20260509020509 | 56 | 160 | 0.0 | 0.0 | 0.00 | 0.01 | 0.01 | 92 | 1007.9 |
| 20260509020006 | 57 | 160 | 0.0 | 0.0 | 0.00 | 0.01 | 0.01 | 92 | 1007.9 |
| 20260509015505 | 57 | 160 | 0.0 | 0.0 | 0.00 | 0.01 | 0.01 | 92 | 1007.7 |
| 20260509015002 | 57 | 160 | 0.0 | 0.0 | 0.00 | 0.01 | 0.01 | 91 | 1007.6 |
| 20260509014458 | 57 | 168 | 0.0 | 0.0 | 0.00 | 0.01 | 0.01 | 91 | 1007.7 |
| 20260509013954 | 58 | 168 | 0.0 | 0.0 | 0.00 | 0.01 | 0.01 | 90 | 1007.5 |
| 20260509013452 | 58 | 168 | 0.0 | 0.0 | 0.00 | 0.01 | 0.01 | 90 | 1007.5 |
| 20260509012947 | 58 | 168 | 0.0 | 0.0 | 0.00 | 0.01 | 0.01 | 90 | 1007.6 |
| 20260509012444 | 59 | 166 | 0.0 | 0.0 | 0.00 | 0.01 | 0.01 | 89 | 1007.5 |
| 20260509011941 | 59 | 166 | 0.0 | 0.0 | 0.00 | 0.01 | 0.01 | 88 | 1007.7 |
| 20260509011439 | 59 | 166 | 0.0 | 0.0 | 0.00 | 0.01 | 0.01 | 88 | 1007.2 |
| 20260509010936 | 60 | 188 | 0.0 | 0.0 | 0.00 | 0.01 | 0.01 | 87 | 1007.2 |
| 20260509010434 | 61 | 189 | 1.0 | 1.0 | 0.00 | 0.01 | 0.01 | 85 | 1006.7 |
| 20260509005930 | 61 | 189 | 0.0 | 0.0 | 0.00 | 0.01 | 0.01 | 84 | 1007.1 |
| 20260509005429 | 62 | 189 | 1.0 | 2.0 | 0.00 | 0.01 | 0.01 | 82 | 1006.9 |
| 20260509004928 | 62 | 188 | 1.0 | 1.0 | 0.00 | 0.01 | 0.01 | 81 | 1006.9 |
| 20260509004425 | 62 | 180 | 1.0 | 1.0 | 0.00 | 0.01 | 0.01 | 81 | 1006.6 |
| 20260509003924 | 62 | 169 | 0.0 | 0.0 | 0.00 | 0.01 | 0.01 | 80 | 1006.8 |
| 20260509003421 | 62 | 168 | 0.0 | 0.0 | 0.00 | 0.01 | 0.01 | 80 | 1006.4 |
| 20260509002917 | 63 | 198 | 2.0 | 2.0 | 0.00 | 0.01 | 0.01 | 79 | 1006.3 |
| 20260509002416 | 63 | 193 | 2.0 | 2.0 | 0.00 | 0.01 | 0.01 | 78 | 1006.5 |
| 20260509001912 | 63 | 178 | 1.0 | 1.0 | 0.00 | 0.01 | 0.01 | 78 | 1006.7 |
| 20260509001408 | 64 | 146 | 0.0 | 0.0 | 0.00 | 0.01 | 0.01 | 77 | 1006.9 |
| 20260509000906 | 64 | 166 | 0.0 | 0.0 | 0.00 | 0.01 | 0.01 | 77 | 1006.9 |
| 20260509000404 | 64 | 167 | 0.0 | 0.0 | 0.00 | 0.01 | 0.01 | 77 | 1006.8 |
| 20260508235859 | 64 | 133 | 0.0 | 0.0 | 0.00 | 0.01 | 0.01 | 77 | 1006.8 |
| 20260508235357 | 63 | 128 | 0.0 | 0.0 | 0.00 | 0.01 | 0.01 | 78 | 1006.9 |
| 20260508234854 | 63 | 111 | 1.0 | 2.0 | 0.00 | 0.01 | 0.01 | 77 | 1006.9 |
| 20260508234350 | 63 | 124 | 0.0 | 1.0 | 0.00 | 0.01 | 0.01 | 78 | 1006.7 |
| 20260508233849 | 63 | 118 | 1.0 | 1.0 | 0.00 | 0.01 | 0.01 | 78 | 1006.5 |
| 20260508233348 | 63 | 128 | 0.0 | 0.0 | 0.00 | 0.01 | 0.01 | 78 | 1006.7 |
| 20260508232844 | 64 | 114 | 0.0 | 0.0 | 0.00 | 0.01 | 0.01 | 77 | 1006.7 |
| 20260508232340 | 63 | 129 | 0.0 | 0.0 | 0.00 | 0.01 | 0.01 | 77 | 1006.6 |
| 20260508231839 | 63 | 205 | 2.0 | 3.0 | 0.00 | 0.01 | 0.01 | 77 | 1006.2 |
| 20260508231335 | 63 | 215 | 4.0 | 5.0 | 0.00 | 0.01 | 0.01 | 76 | 1006.0 |
| 20260508230832 | 63 | 163 | 3.0 | 5.0 | 0.00 | 0.01 | 0.01 | 77 | 1006.2 |
| 20260508230328 | 63 | 192 | 1.0 | 2.0 | 0.00 | 0.01 | 0.01 | 79 | 1006.2 |
| 20260508225826 | 63 | 109 | 0.0 | 0.0 | 0.00 | 0.01 | 0.01 | 79 | 1006.3 |
| 20260508225322 | 62 | 158 | 1.0 | 1.0 | 0.00 | 0.01 | 0.01 | 82 | 1006.2 |
| 20260508224821 | 61 | 183 | 3.0 | 3.0 | 0.00 | 0.01 | 0.01 | 84 | 1006.1 |
| 20260508224318 | 61 | 135 | 0.0 | 0.0 | 0.05 | 0.01 | 0.01 | 82 | 1006.4 |
| 20260508223815 | 61 | 132 | 0.0 | 0.0 | 0.05 | 0.01 | 0.01 | 80 | 1006.9 |
| 20260508223312 | 62 | 90 | 1.0 | 1.0 | 0.00 | 0.00 | 0.00 | 79 | 1007.1 |
| 20260508222810 | 62 | 140 | 0.0 | 0.0 | 0.00 | 0.00 | 0.00 | 81 | 1007.2 |
| 20260508222307 | 62 | 136 | 0.0 | 0.0 | 0.00 | 0.00 | 0.00 | 81 | 1007.4 |
| 20260508221803 | 62 | 126 | 1.0 | 1.0 | 0.00 | 0.00 | 0.00 | 80 | 1007.1 |
| 20260508221259 | 62 | 116 | 0.0 | 0.0 | 0.00 | 0.00 | 0.00 | 81 | 1007.2 |
| 20260508220755 | 62 | 38 | 3.0 | 5.0 | 0.00 | 0.00 | 0.00 | 80 | 1007.4 |
| 20260508220252 | 62 | 126 | 0.0 | 1.0 | 0.00 | 0.00 | 0.00 | 80 | 1007.3 |
| 20260508215748 | 62 | 124 | 0.0 | 1.0 | 0.00 | 0.00 | 0.00 | 79 | 1007.4 |
| 20260508215245 | 63 | 106 | 1.0 | 2.0 | 0.00 | 0.00 | 0.00 | 79 | 1007.5 |
| 20260508214742 | 63 | 129 | 1.0 | 1.0 | 0.00 | 0.00 | 0.00 | 78 | 1007.8 |
| 20260508214240 | 63 | 120 | 1.0 | 1.0 | 0.00 | 0.00 | 0.00 | 78 | 1007.8 |
| 20260508213736 | 63 | 117 | 1.0 | 1.0 | 0.00 | 0.00 | 0.00 | 75 | 1008.2 |
| 20260508213232 | 64 | 107 | 0.0 | 1.0 | 0.00 | 0.00 | 0.00 | 74 | 1008.0 |
| 20260508212729 | 64 | 133 | 0.0 | 1.0 | 0.00 | 0.00 | 0.00 | 72 | 1007.8 |
| 20260508212226 | 65 | 95 | 1.0 | 1.0 | 0.00 | 0.00 | 0.00 | 69 | 1007.9 |
| 20260508211721 | 66 | 72 | 1.0 | 2.0 | 0.00 | 0.00 | 0.00 | 67 | 1008.4 |
| 20260508211217 | 66 | 128 | 1.0 | 1.0 | 0.00 | 0.00 | 0.00 | 65 | 1008.2 |
| 20260508210715 | 67 | 7 | 1.0 | 1.0 | 0.00 | 0.00 | 0.00 | 64 | 1008.0 |
| 20260508210212 | 67 | 130 | 0.0 | 1.0 | 0.00 | 0.00 | 0.00 | 65 | 1007.8 |
| 20260508205709 | 68 | 122 | 1.0 | 1.0 | 0.00 | 0.00 | 0.00 | 64 | 1007.9 |
| 20260508205205 | 68 | 113 | 1.0 | 1.0 | 0.00 | 0.00 | 0.00 | 64 | 1007.6 |
| 20260508204701 | 68 | 163 | 0.0 | 0.0 | 0.00 | 0.00 | 0.00 | 62 | 1007.8 |
| 20260508204157 | 68 | 164 | 0.0 | 1.0 | 0.00 | 0.00 | 0.00 | 62 | 1008.2 |
| 20260508203653 | 68 | 203 | 1.0 | 1.0 | 0.00 | 0.00 | 0.00 | 63 | 1008.1 |
| 20260508203150 | 68 | 174 | 1.0 | 1.0 | 0.00 | 0.00 | 0.00 | 63 | 1008.3 |
| 20260508202646 | 68 | 172 | 0.0 | 1.0 | 0.00 | 0.00 | 0.00 | 64 | 1008.4 |
| 20260508202144 | 67 | 169 | 0.0 | 0.0 | 0.00 | 0.00 | 0.00 | 64 | 1007.8 |
| 20260508201640 | 67 | 167 | 0.0 | 0.0 | 0.00 | 0.00 | 0.00 | 63 | 1007.8 |
| 20260508201137 | 67 | 129 | 0.0 | 0.0 | 0.00 | 0.00 | 0.00 | 64 | 1007.8 |
| 20260508200633 | 67 | 160 | 1.0 | 1.0 | 0.00 | 0.00 | 0.00 | 64 | 1007.7 |
| 20260508200129 | 68 | 116 | 0.0 | 0.0 | 0.00 | 0.00 | 0.00 | 64 | 1007.7 |
| 20260508195627 | 68 | 144 | 0.0 | 1.0 | 0.00 | 0.00 | 0.00 | 64 | 1008.1 |
| 20260508195123 | 68 | 21 | 2.0 | 2.0 | 0.00 | 0.00 | 0.00 | 62 | 1008.4 |
| 20260508194619 | 68 | 158 | 1.0 | 1.0 | 0.00 | 0.00 | 0.00 | 63 | 1008.4 |
| 20260508194117 | 68 | 147 | 0.0 | 0.0 | 0.00 | 0.00 | 0.00 | 63 | 1008.4 |
| 20260508193614 | 68 | 190 | 1.0 | 1.0 | 0.00 | 0.00 | 0.00 | 62 | 1008.1 |
| 20260508193110 | 68 | 162 | 1.0 | 2.0 | 0.00 | 0.00 | 0.00 | 62 | 1008.2 |
| 20260508192607 | 68 | 183 | 1.0 | 1.0 | 0.00 | 0.00 | 0.00 | 63 | 1007.5 |
| 20260508192104 | 67 | 165 | 0.0 | 1.0 | 0.00 | 0.00 | 0.00 | 62 | 1007.7 |
| 20260508191601 | 68 | 141 | 0.0 | 0.0 | 0.00 | 0.00 | 0.00 | 64 | 1007.8 |
| 20260508191057 | 68 | 173 | 0.0 | 1.0 | 0.00 | 0.00 | 0.00 | 61 | 1007.9 |
| 20260508190554 | 68 | 136 | 0.0 | 0.0 | 0.00 | 0.00 | 0.00 | 61 | 1008.5 |
| 20260508190051 | 68 | 151 | 0.0 | 0.0 | 0.00 | 0.00 | 0.00 | 62 | 1008.3 |
| 20260508185548 | 68 | 164 | 0.0 | 1.0 | 0.00 | 0.00 | 0.00 | 60 | 1008.3 |
| 20260508185046 | 67 | 158 | 2.0 | 2.0 | 0.00 | 0.00 | 0.00 | 62 | 1008.5 |
| 20260508184543 | 67 | 189 | 3.0 | 3.0 | 0.00 | 0.00 | 0.00 | 61 | 1008.3 |
| 20260508184040 | 67 | 202 | 1.0 | 1.0 | 0.00 | 0.00 | 0.00 | 61 | 1008.4 |
| 20260508183536 | 68 | 180 | 1.0 | 2.0 | 0.00 | 0.00 | 0.00 | 60 | 1008.3 |
| 20260508183032 | 68 | 159 | 0.0 | 1.0 | 0.00 | 0.00 | 0.00 | 59 | 1008.5 |
| 20260508182529 | 68 | 192 | 1.0 | 2.0 | 0.00 | 0.00 | 0.00 | 61 | 1008.6 |
| 20260508182025 | 67 | 130 | 1.0 | 2.0 | 0.00 | 0.00 | 0.00 | 61 | 1008.6 |
| 20260508181520 | 67 | 186 | 1.0 | 1.0 | 0.00 | 0.00 | 0.00 | 61 | 1008.9 |
| 20260508181019 | 67 | 174 | 1.0 | 1.0 | 0.00 | 0.00 | 0.00 | 62 | 1009.0 |
| 20260508180515 | 67 | 161 | 0.0 | 1.0 | 0.00 | 0.00 | 0.00 | 61 | 1008.9 |
| 20260508180011 | 67 | 136 | 0.0 | 1.0 | 0.00 | 0.00 | 0.00 | 61 | 1008.9 |
| 20260508175508 | 67 | 126 | 0.0 | 0.0 | 0.00 | 0.00 | 0.00 | 63 | 1009.0 |
| 20260508175005 | 66 | 224 | 1.0 | 2.0 | 0.00 | 0.00 | 0.00 | 64 | 1008.8 |
| 20260508174503 | 66 | 210 | 3.0 | 3.0 | 0.00 | 0.00 | 0.00 | 63 | 1008.6 |
| 20260508173959 | 66 | 176 | 1.0 | 1.0 | 0.00 | 0.00 | 0.00 | 63 | 1008.6 |
| 20260508173457 | 66 | 175 | 1.0 | 1.0 | 0.00 | 0.00 | 0.00 | 63 | 1008.1 |
| 20260508172952 | 66 | 180 | 3.0 | 3.0 | 0.00 | 0.00 | 0.00 | 64 | 1008.5 |
| 20260508172450 | 66 | 220 | 1.0 | 2.0 | 0.00 | 0.00 | 0.00 | 63 | 1008.8 |
| 20260508171946 | 65 | 168 | 0.0 | 0.0 | 0.00 | 0.00 | 0.00 | 63 | 1008.9 |
| 20260508171443 | 66 | 192 | 2.0 | 2.0 | 0.00 | 0.00 | 0.00 | 62 | 1009.1 |
| 20260508170939 | 65 | 159 | 0.0 | 0.0 | 0.00 | 0.00 | 0.00 | 62 | 1009.1 |
| 20260508170437 | 65 | 211 | 2.0 | 2.0 | 0.00 | 0.00 | 0.00 | 63 | 1009.3 |
| 20260508165933 | 65 | 169 | 2.0 | 2.0 | 0.00 | 0.00 | 0.00 | 63 | 1009.6 |
| 20260508165432 | 65 | 208 | 4.0 | 5.0 | 0.00 | 0.00 | 0.00 | 62 | 1009.7 |
| 20260508164927 | 65 | 147 | 1.0 | 1.0 | 0.00 | 0.00 | 0.00 | 63 | 1009.5 |
| 20260508164424 | 65 | 178 | 2.0 | 3.0 | 0.00 | 0.00 | 0.00 | 62 | 1009.5 |
| 20260508163921 | 65 | 194 | 3.0 | 3.0 | 0.00 | 0.00 | 0.00 | 64 | 1009.3 |
| 20260508163419 | 65 | 164 | 1.0 | 1.0 | 0.00 | 0.00 | 0.00 | 63 | 1009.2 |
| 20260508162914 | 65 | 188 | 2.0 | 3.0 | 0.00 | 0.00 | 0.00 | 63 | 1009.0 |
| 20260508162412 | 65 | 176 | 1.0 | 2.0 | 0.00 | 0.00 | 0.00 | 64 | 1009.2 |
| 20260508161909 | 64 | 192 | 3.0 | 3.0 | 0.00 | 0.00 | 0.00 | 64 | 1009.1 |
| 20260508161406 | 64 | 215 | 4.0 | 5.0 | 0.00 | 0.00 | 0.00 | 63 | 1009.0 |
| 20260508160903 | 64 | 187 | 2.0 | 2.0 | 0.00 | 0.00 | 0.00 | 64 | 1009.0 |
| 20260508160402 | 64 | 238 | 0.0 | 1.0 | 0.00 | 0.00 | 0.00 | 65 | 1009.0 |
| 20260508155858 | 64 | 206 | 2.0 | 2.0 | 0.00 | 0.00 | 0.00 | 66 | 1009.2 |
| 20260508155355 | 63 | 192 | 3.0 | 3.0 | 0.00 | 0.00 | 0.00 | 64 | 1009.4 |
| 20260508154852 | 63 | 224 | 4.0 | 5.0 | 0.00 | 0.00 | 0.00 | 64 | 1009.3 |
| 20260508154349 | 63 | 206 | 2.0 | 3.0 | 0.00 | 0.00 | 0.00 | 64 | 1009.5 |
| 20260508153846 | 63 | 161 | 1.0 | 2.0 | 0.00 | 0.00 | 0.00 | 64 | 1009.2 |
| 20260508153343 | 63 | 226 | 3.0 | 3.0 | 0.00 | 0.00 | 0.00 | 64 | 1009.5 |
| 20260508152839 | 63 | 207 | 3.0 | 5.0 | 0.00 | 0.00 | 0.00 | 64 | 1009.3 |
| 20260508152336 | 62 | 164 | 0.0 | 0.0 | 0.00 | 0.00 | 0.00 | 65 | 1009.5 |
| 20260508151832 | 62 | 187 | 2.0 | 2.0 | 0.00 | 0.00 | 0.00 | 64 | 1009.6 |
| 20260508151329 | 62 | 172 | 1.0 | 1.0 | 0.00 | 0.00 | 0.00 | 65 | 1009.8 |
| 20260508150825 | 61 | 166 | 0.0 | 1.0 | 0.00 | 0.00 | 0.00 | 66 | 1009.7 |
| 20260508150322 | 61 | 193 | 0.0 | 1.0 | 0.00 | 0.00 | 0.00 | 66 | 1009.7 |
| 20260508145819 | 61 | 206 | 1.0 | 1.0 | 0.00 | 0.00 | 0.00 | 66 | 1009.8 |
| 20260508145315 | 61 | 190 | 2.0 | 2.0 | 0.00 | 0.00 | 0.00 | 66 | 1009.6 |
| 20260508144812 | 61 | 204 | 3.0 | 3.0 | 0.00 | 0.00 | 0.00 | 66 | 1009.7 |
| 20260508144309 | 60 | 201 | 2.0 | 2.0 | 0.00 | 0.00 | 0.00 | 66 | 1009.6 |
| 20260508143801 | 60 | 202 | 2.0 | 3.0 | 0.00 | 0.00 | 0.00 | 66 | 1009.8 |
| 20260508143258 | 60 | 209 | 2.0 | 3.0 | 0.00 | 0.00 | 0.00 | 65 | 1009.9 |
| 20260508142754 | 60 | 177 | 1.0 | 2.0 | 0.00 | 0.00 | 0.00 | 65 | 1009.7 |
| 20260508142251 | 60 | 237 | 5.0 | 6.0 | 0.00 | 0.00 | 0.00 | 65 | 1009.8 |
| 20260508141748 | 60 | 189 | 2.0 | 2.0 | 0.00 | 0.00 | 0.00 | 65 | 1009.7 |
| 20260508141245 | 60 | 176 | 1.0 | 2.0 | 0.00 | 0.00 | 0.00 | 65 | 1009.7 |
| 20260508140743 | 60 | 183 | 3.0 | 3.0 | 0.00 | 0.00 | 0.00 | 65 | 1009.6 |
| 20260508140239 | 60 | 203 | 2.0 | 2.0 | 0.00 | 0.00 | 0.00 | 65 | 1009.8 |
| 20260508135735 | 60 | 204 | 3.0 | 3.0 | 0.00 | 0.00 | 0.00 | 65 | 1009.4 |
| 20260508135231 | 60 | 202 | 3.0 | 3.0 | 0.00 | 0.00 | 0.00 | 65 | 1009.6 |
| 20260508134727 | 60 | 194 | 3.0 | 3.0 | 0.00 | 0.00 | 0.00 | 66 | 1009.7 |
| 20260508134225 | 60 | 203 | 2.0 | 2.0 | 0.00 | 0.00 | 0.00 | 66 | 1009.7 |
| 20260508133721 | 60 | 194 | 3.0 | 3.0 | 0.00 | 0.00 | 0.00 | 65 | 1009.8 |
| 20260508133219 | 60 | 204 | 4.0 | 5.0 | 0.00 | 0.00 | 0.00 | 66 | 1009.6 |
| 20260508132716 | 60 | 190 | 2.0 | 2.0 | 0.00 | 0.00 | 0.00 | 66 | 1009.7 |
| 20260508132213 | 60 | 183 | 1.0 | 2.0 | 0.00 | 0.00 | 0.00 | 65 | 1009.8 |
| 20260508131703 | 59 | 170 | 0.0 | 0.0 | 0.00 | 0.00 | 0.00 | 65 | 1010.0 |
| 20260508131200 | 59 | 184 | 2.0 | 2.0 | 0.00 | 0.00 | 0.00 | 66 | 1009.7 |
| 20260508130656 | 59 | 159 | 1.0 | 1.0 | 0.00 | 0.00 | 0.00 | 66 | 1009.7 |
| 20260508130154 | 59 | 204 | 2.0 | 2.0 | 0.00 | 0.00 | 0.00 | 66 | 1009.5 |
| 20260508125649 | 59 | 193 | 2.0 | 2.0 | 0.00 | 0.00 | 0.00 | 65 | 1009.9 |
| 20260508125146 | 59 | 198 | 2.0 | 2.0 | 0.00 | 0.00 | 0.00 | 65 | 1009.6 |
| 20260508124644 | 59 | 192 | 1.0 | 2.0 | 0.00 | 0.00 | 0.00 | 65 | 1009.9 |
| 20260508124141 | 59 | 162 | 0.0 | 0.0 | 0.00 | 0.00 | 0.00 | 65 | 1009.6 |
| 20260508123639 | 59 | 196 | 1.0 | 1.0 | 0.00 | 0.00 | 0.00 | 64 | 1009.5 |
| 20260508123137 | 59 | 167 | 0.0 | 0.0 | 0.00 | 0.00 | 0.00 | 65 | 1009.7 |
| 20260508122633 | 59 | 161 | 0.0 | 0.0 | 0.00 | 0.00 | 0.00 | 65 | 1009.6 |
| 20260508122130 | 59 | 183 | 0.0 | 1.0 | 0.00 | 0.00 | 0.00 | 64 | 1009.3 |
| 20260508121628 | 59 | 163 | 0.0 | 0.0 | 0.00 | 0.00 | 0.00 | 64 | 1009.3 |
| 20260508121126 | 59 | 171 | 1.0 | 1.0 | 0.00 | 0.00 | 0.00 | 64 | 1009.4 |
| 20260508120623 | 59 | 188 | 2.0 | 2.0 | 0.00 | 0.00 | 0.00 | 63 | 1009.1 |
| 20260508120122 | 59 | 184 | 3.0 | 3.0 | 0.00 | 0.00 | 0.00 | 63 | 1009.3 |
| 20260508115619 | 59 | 170 | 0.0 | 0.0 | 0.00 | 0.00 | 0.00 | 63 | 1009.0 |
| 20260508115115 | 59 | 166 | 1.0 | 2.0 | 0.00 | 0.00 | 0.00 | 63 | 1009.2 |
| 20260508114613 | 59 | 161 | 0.0 | 1.0 | 0.00 | 0.00 | 0.00 | 63 | 1008.9 |
| 20260508114108 | 59 | 166 | 0.0 | 0.0 | 0.00 | 0.00 | 0.00 | 64 | 1009.0 |
| 20260508113606 | 59 | 144 | 0.0 | 0.0 | 0.00 | 0.00 | 0.00 | 64 | 1008.8 |
| 20260508113104 | 59 | 195 | 3.0 | 5.0 | 0.00 | 0.00 | 0.00 | 64 | 1008.7 |
| 20260508112559 | 59 | 189 | 0.0 | 1.0 | 0.00 | 0.00 | 0.00 | 64 | 1008.7 |
| 20260508112056 | 59 | 194 | 2.0 | 2.0 | 0.00 | 0.00 | 0.00 | 63 | 1008.8 |
| 20260508111553 | 59 | 158 | 3.0 | 3.0 | 0.00 | 0.00 | 0.00 | 63 | 1008.5 |
| 20260508111050 | 59 | 169 | 1.0 | 2.0 | 0.00 | 0.00 | 0.00 | 63 | 1008.6 |
| 20260508110548 | 59 | 182 | 2.0 | 3.0 | 0.00 | 0.00 | 0.00 | 63 | 1008.9 |
| 20260508110044 | 59 | 207 | 1.0 | 2.0 | 0.00 | 0.00 | 0.00 | 63 | 1008.8 |
| 20260508105539 | 59 | 181 | 2.0 | 2.0 | 0.00 | 0.00 | 0.00 | 63 | 1008.7 |
| 20260508105037 | 59 | 207 | 2.0 | 3.0 | 0.00 | 0.00 | 0.00 | 63 | 1008.5 |
| 20260508104534 | 59 | 319 | 1.0 | 2.0 | 0.00 | 0.00 | 0.00 | 63 | 1008.8 |
| 20260508104030 | 58 | 153 | 1.0 | 1.0 | 0.00 | 0.00 | 0.00 | 63 | 1008.6 |
| 20260508103528 | 59 | 169 | 1.0 | 1.0 | 0.00 | 0.00 | 0.00 | 63 | 1008.5 |
| 20260508103025 | 59 | 171 | 3.0 | 6.0 | 0.00 | 0.00 | 0.00 | 63 | 1008.6 |
| 20260508102523 | 59 | 183 | 2.0 | 2.0 | 0.00 | 0.00 | 0.00 | 63 | 1008.8 |
| 20260508102020 | 59 | 159 | 1.0 | 1.0 | 0.00 | 0.00 | 0.00 | 62 | 1008.6 |
| 20260508101518 | 59 | 180 | 4.0 | 5.0 | 0.00 | 0.00 | 0.00 | 63 | 1008.5 |
| 20260508101014 | 59 | 152 | 0.0 | 0.0 | 0.00 | 0.00 | 0.00 | 63 | 1008.6 |
| 20260508100513 | 59 | 202 | 2.0 | 3.0 | 0.00 | 0.00 | 0.00 | 62 | 1008.5 |
| 20260508100009 | 59 | 171 | 3.0 | 3.0 | 0.00 | 0.00 | 0.00 | 62 | 1008.4 |
| 20260508095507 | 59 | 182 | 1.0 | 2.0 | 0.00 | 0.00 | 0.00 | 62 | 1008.5 |
| 20260508095003 | 59 | 170 | 1.0 | 1.0 | 0.00 | 0.00 | 0.00 | 62 | 1008.7 |
| 20260508094500 | 58 | 204 | 4.0 | 5.0 | 0.00 | 0.00 | 0.00 | 63 | 1008.5 |
| 20260508093957 | 58 | 195 | 2.0 | 2.0 | 0.00 | 0.00 | 0.00 | 63 | 1008.5 |
| 20260508093454 | 58 | 190 | 3.0 | 3.0 | 0.00 | 0.00 | 0.00 | 64 | 1008.4 |
| 20260508092952 | 58 | 173 | 1.0 | 1.0 | 0.00 | 0.00 | 0.00 | 64 | 1008.6 |
| 20260508092449 | 58 | 174 | 1.0 | 1.0 | 0.00 | 0.00 | 0.00 | 64 | 1008.6 |
| 20260508091948 | 58 | 159 | 0.0 | 0.0 | 0.00 | 0.00 | 0.00 | 64 | 1008.4 |
| 20260508091444 | 57 | 168 | 0.0 | 0.0 | 0.00 | 0.00 | 0.00 | 65 | 1008.7 |
| 20260508090941 | 57 | 190 | 1.0 | 2.0 | 0.00 | 0.00 | 0.00 | 65 | 1008.5 |
| 20260508090440 | 57 | 206 | 1.0 | 1.0 | 0.00 | 0.00 | 0.00 | 65 | 1008.7 |
| 20260508085935 | 57 | 166 | 0.0 | 1.0 | 0.00 | 0.00 | 0.00 | 65 | 1008.5 |
| 20260508085432 | 57 | 172 | 0.0 | 0.0 | 0.00 | 0.00 | 0.00 | 66 | 1008.4 |
| 20260508084929 | 57 | 191 | 1.0 | 1.0 | 0.00 | 0.00 | 0.00 | 66 | 1008.7 |
| 20260508084425 | 57 | 222 | 2.0 | 2.0 | 0.00 | 0.00 | 0.00 | 66 | 1008.8 |
| 20260508083923 | 57 | 190 | 2.0 | 3.0 | 0.00 | 0.00 | 0.00 | 66 | 1008.8 |
| 20260508083420 | 57 | 138 | 1.0 | 1.0 | 0.00 | 0.00 | 0.00 | 66 | 1008.8 |
| 20260508082914 | 57 | 173 | 0.0 | 1.0 | 0.00 | 0.00 | 0.00 | 66 | 1008.9 |
| 20260508082412 | 57 | 167 | 0.0 | 0.0 | 0.00 | 0.00 | 0.00 | 66 | 1009.0 |
| 20260508081910 | 57 | 180 | 0.0 | 1.0 | 0.00 | 0.00 | 0.00 | 65 | 1009.0 |
| 20260508081406 | 57 | 180 | 2.0 | 2.0 | 0.00 | 0.00 | 0.00 | 65 | 1008.9 |
| 20260508080903 | 57 | 212 | 2.0 | 2.0 | 0.00 | 0.00 | 0.00 | 66 | 1009.2 |
| 20260508080402 | 57 | 144 | 0.0 | 0.0 | 0.00 | 0.00 | 0.00 | 65 | 1009.1 |
| 20260508075857 | 57 | 156 | 0.0 | 0.0 | 0.00 | 0.00 | 0.00 | 65 | 1009.1 |
| 20260508075355 | 57 | 176 | 1.0 | 1.0 | 0.00 | 0.00 | 0.00 | 65 | 1009.0 |
| 20260508074853 | 57 | 182 | 1.0 | 2.0 | 0.00 | 0.00 | 0.00 | 65 | 1009.2 |
| 20260508074349 | 57 | 173 | 0.0 | 0.0 | 0.00 | 0.00 | 0.00 | 65 | 1009.2 |
| 20260508073846 | 57 | 190 | 1.0 | 2.0 | 0.00 | 0.00 | 0.00 | 64 | 1009.4 |
| 20260508073344 | 57 | 170 | 0.0 | 1.0 | 0.00 | 0.00 | 0.00 | 64 | 1009.3 |
| 20260508072840 | 58 | 145 | 1.0 | 1.0 | 0.00 | 0.00 | 0.00 | 63 | 1009.5 |
| 20260508072337 | 58 | 188 | 2.0 | 3.0 | 0.00 | 0.00 | 0.00 | 63 | 1009.7 |
| 20260508071834 | 58 | 183 | 2.0 | 2.0 | 0.00 | 0.00 | 0.00 | 63 | 1009.6 |
| 20260508071333 | 58 | 167 | 2.0 | 2.0 | 0.00 | 0.00 | 0.00 | 63 | 1009.8 |
| 20260508070830 | 58 | 180 | 1.0 | 2.0 | 0.00 | 0.00 | 0.00 | 63 | 1009.9 |
| 20260508070328 | 58 | 172 | 0.0 | 1.0 | 0.00 | 0.00 | 0.00 | 63 | 1009.7 |
| 20260508065825 | 58 | 186 | 1.0 | 1.0 | 0.00 | 0.00 | 0.00 | 62 | 1009.7 |
| 20260508065323 | 59 | 169 | 0.0 | 0.0 | 0.00 | 0.00 | 0.00 | 62 | 1009.9 |
| 20260508064821 | 59 | 183 | 0.0 | 1.0 | 0.00 | 0.00 | 0.00 | 61 | 1009.7 |
| 20260508064318 | 59 | 178 | 4.0 | 5.0 | 0.00 | 0.00 | 0.00 | 61 | 1009.9 |
| 20260508063816 | 59 | 189 | 3.0 | 3.0 | 0.00 | 0.00 | 0.00 | 61 | 1010.0 |
| 20260508063314 | 59 | 175 | 0.0 | 1.0 | 0.00 | 0.00 | 0.00 | 61 | 1009.7 |
| 20260508062810 | 59 | 170 | 0.0 | 1.0 | 0.00 | 0.00 | 0.00 | 60 | 1010.0 |
| 20260508062308 | 60 | 202 | 0.0 | 1.0 | 0.00 | 0.00 | 0.00 | 60 | 1010.0 |
| 20260508061804 | 60 | 157 | 0.0 | 0.0 | 0.00 | 0.00 | 0.00 | 59 | 1010.1 |
| 20260508061302 | 60 | 200 | 3.0 | 5.0 | 0.00 | 0.00 | 0.00 | 59 | 1010.4 |
| 20260508060758 | 60 | 146 | 1.0 | 1.0 | 0.00 | 0.00 | 0.00 | 59 | 1010.0 |
| 20260508060256 | 60 | 183 | 2.0 | 5.0 | 0.00 | 0.00 | 0.00 | 58 | 1010.0 |
| 20260508055751 | 60 | 153 | 0.0 | 0.0 | 0.00 | 0.00 | 0.00 | 58 | 1010.1 |
| 20260508055249 | 60 | 217 | 4.0 | 5.0 | 0.00 | 0.00 | 0.00 | 57 | 1010.0 |
| 20260508054745 | 61 | 130 | 1.0 | 2.0 | 0.00 | 0.00 | 0.00 | 57 | 1010.2 |
| 20260508054243 | 61 | 289 | 2.0 | 3.0 | 0.00 | 0.00 | 0.00 | 57 | 1010.1 |
| 20260508053740 | 61 | 186 | 4.0 | 5.0 | 0.00 | 0.00 | 0.00 | 57 | 1010.2 |
| 20260508053237 | 61 | 202 | 2.0 | 2.0 | 0.00 | 0.00 | 0.00 | 57 | 1010.0 |
| 20260508052734 | 61 | 165 | 1.0 | 2.0 | 0.00 | 0.00 | 0.00 | 57 | 1010.2 |
| 20260508052232 | 61 | 181 | 3.0 | 3.0 | 0.00 | 0.00 | 0.00 | 57 | 1010.0 |
| 20260508051727 | 61 | 173 | 3.0 | 5.0 | 0.00 | 0.00 | 0.00 | 57 | 1009.9 |
| 20260508051223 | 61 | 203 | 3.0 | 3.0 | 0.00 | 0.00 | 0.00 | 57 | 1010.1 |
| 20260508050720 | 61 | 179 | 3.0 | 5.0 | 0.00 | 0.00 | 0.00 | 57 | 1010.1 |
| 20260508050217 | 61 | 170 | 0.0 | 1.0 | 0.00 | 0.00 | 0.00 | 56 | 1010.4 |
| 20260508045712 | 61 | 217 | 2.0 | 3.0 | 0.00 | 0.00 | 0.00 | 56 | 1010.5 |
| 20260508045210 | 61 | 186 | 3.0 | 5.0 | 0.00 | 0.00 | 0.00 | 56 | 1010.2 |
| 20260508044707 | 61 | 205 | 5.0 | 8.0 | 0.00 | 0.00 | 0.00 | 56 | 1010.4 |
| 20260508044204 | 62 | 161 | 0.0 | 0.0 | 0.00 | 0.00 | 0.00 | 55 | 1010.5 |
| 20260508043700 | 62 | 185 | 3.0 | 3.0 | 0.00 | 0.00 | 0.00 | 55 | 1010.5 |
| 20260508043158 | 62 | 202 | 2.0 | 2.0 | 0.00 | 0.00 | 0.00 | 54 | 1010.6 |
| 20260508042654 | 62 | 329 | 3.0 | 3.0 | 0.00 | 0.00 | 0.00 | 54 | 1010.1 |
| 20260508042152 | 62 | 160 | 0.0 | 1.0 | 0.00 | 0.00 | 0.00 | 54 | 1010.5 |
| 20260508041648 | 62 | 151 | 0.0 | 1.0 | 0.00 | 0.00 | 0.00 | 54 | 1010.5 |
| 20260508041145 | 62 | 215 | 4.0 | 5.0 | 0.00 | 0.00 | 0.00 | 54 | 1010.4 |
| 20260508040641 | 62 | 196 | 3.0 | 5.0 | 0.00 | 0.00 | 0.00 | 53 | 1010.7 |
| 20260508040139 | 63 | 190 | 2.0 | 2.0 | 0.00 | 0.00 | 0.00 | 53 | 1010.5 |
| 20260508035636 | 63 | 202 | 4.0 | 5.0 | 0.00 | 0.00 | 0.00 | 53 | 1010.5 |
| 20260508035133 | 63 | 203 | 5.0 | 6.0 | 0.00 | 0.00 | 0.00 | 53 | 1010.4 |
| 20260508034630 | 63 | 144 | 0.0 | 1.0 | 0.00 | 0.00 | 0.00 | 52 | 1010.4 |
| 20260508034127 | 63 | 218 | 3.0 | 5.0 | 0.00 | 0.00 | 0.00 | 52 | 1010.4 |
| 20260508033624 | 63 | 236 | 3.0 | 6.0 | 0.00 | 0.00 | 0.00 | 52 | 1010.5 |
| 20260508033123 | 63 | 195 | 3.0 | 5.0 | 0.00 | 0.00 | 0.00 | 52 | 1010.4 |
| 20260508032619 | 63 | 207 | 1.0 | 2.0 | 0.00 | 0.00 | 0.00 | 52 | 1010.4 |
| 20260508032116 | 63 | 172 | 1.0 | 1.0 | 0.00 | 0.00 | 0.00 | 52 | 1010.5 |
| 20260508031613 | 64 | 204 | 6.0 | 7.0 | 0.00 | 0.00 | 0.00 | 52 | 1010.4 |